RH
14 14 14 14 14 13 13 13 12 12 11 11 10 10 9 9 9 9 9 8 8 8 8 8 8 8 7 7 7 7 7 7 7 7 6 6 6 6 6 6 6 6 5 6 6 6 7 8 9 10 11 11 12 14 15 17 18 19 21 22 24 25 25 25 24 24 25 27 28 30 31 32 33 33 32 28 23 20 16 13 13 13 12 11 11 10 9 9
15 15 15 14 13 13 12 12 11 11 10 10 10 10 10 9 9 9 9 9 9 9 8 8 8 8 8 8 7 7 7 7 7 7 6 6 6 6 6 6 6 6 6 6 7 8 9 10 11 12 13 14 16 18 19 20 20 21 22 24 26 27 27 26 25 24 25 26 27 29 31 32 33 35 36 35 30 26 21 15 14 14 14 13 12 12 11 10
14 14 13 13 13 12 11 11 11 11 10 10 10 10 10 10 9 9 9 9 9 9 9 8 8 8 8 8 8 8 8 7 7 7 7 6 6 6 6 6 6 6 7 8 9 10 10 11 13 14 16 18 20 20 21 21 21 22 23 26 28 30 29 28 27 26 25 25 25 26 28 30 32 33 35 36 34 33 26 18 16 16 16 16 14 14 13 12
12 12 12 12 12 11 11 11 11 11 10 10 10 10 10 10 10 10 9 9 9 9 9 9 8 8 8 8 8 8 8 7 7 7 6 6 6 6 6 6 7 7 9 10 11 12 13 13 14 17 19 20 21 21 21 22 22 21 24 30 33 34 34 34 33 32 30 29 28 27 26 27 29 31 33 33 32 34 30 23 22 20 19 17 16 16 14 14
11 11 11 11 11 11 11 11 11 11 10 10 10 10 10 10 10 9 10 9 9 9 9 9 9 9 8 8 8 8 8 7 7 7 6 6 6 6 6 6 7 9 11 12 13 13 14 14 16 18 19 21 21 21 21 21 21 20 26 34 36 36 36 36 35 35 35 35 33 32 30 28 28 27 29 30 30 34 33 29 27 24 20 18 18 17 16 15
11 11 11 11 11 11 11 11 11 10 10 10 10 10 10 10 10 9 9 9 9 9 9 9 9 9 8 8 8 7 7 7 7 7 6 6 6 6 6 7 9 11 12 13 13 14 14 15 17 18 19 21 20 19 18 19 23 25 30 34 34 34 32 32 31 30 31 30 30 32 33 33 32 28 27 28 28 33 35 34 32 27 26 26 27 27 25 26
10 10 10 10 10 10 10 10 10 10 10 10 10 10 10 9 9 9 9 9 9 9 8 8 8 8 8 7 7 7 7 6 6 6 6 6 6 6 7 9 11 12 13 14 15 15 16 16 17 17 18 18 17 17 18 22 28 30 32 32 31 31 30 31 30 29 27 24 23 23 25 31 34 32 30 29 26 30 34 35 35 32 33 34 35 36 37 39
12 12 13 13 13 13 12 12 11 11 10 10 9 9 9 9 9 9 9 9 9 8 8 8 7 7 7 7 7 7 7 6 6 6 6 6 6 7 8 11 13 14 15 16 17 17 17 17 17 17 17 18 19 22 26 29 32 32 33 33 31 31 32 33 32 33 32 28 24 19 17 21 26 26 28 32 29 27 30 33 36 36 36 37 37 38 39 40
19 20 20 20 19 18 17 16 15 15 14 13 12 11 10 9 9 8 8 8 8 8 8 8 8 7 7 7 7 7 7 7 6 6 6 6 7 9 11 13 15 16 17 18 19 19 19 20 21 23 25 27 28 31 32 33 33 32 33 33 33 32 33 35 34 35 35 33 29 23 18 17 19 17 20 34 36 31 29 29 33 36 36 37 36 37 39 40
31 31 30 28 25 22 18 16 15 14 14 14 13 13 12 11 10 10 9 9 8 8 8 8 8 8 7 7 7 7 8 8 8 8 9 9 10 12 13 15 16 17 19 20 22 22 24 26 29 31 32 34 34 35 34 32 33 32 32 32 33 33 34 35 36 36 35 32 29 26 21 19 20 17 18 29 33 32 33 31 30 32 34 36 37 37 38 39
38 38 37 36 34 31 27 23 19 16 14 13 12 12 11 11 10 10 10 9 9 9 9 9 8 8 8 7 6 7 9 9 10 11 11 12 12 13 14 16 18 21 23 24 26 27 30 33 35 36 36 37 37 36 34 34 33 32 32 31 32 34 35 37 35 33 32 29 28 28 25 22 21 21 21 25 24 25 30 33 33 33 33 34 35 37 38 37
40 40 39 39 39 38 37 34 31 28 24 20 17 15 13 12 11 11 11 10 10 10 10 10 9 9 8 7 7 8 9 9 11 12 13 13 14 16 18 21 23 26 28 30 32 34 36 38 39 39 39 39 39 37 36 35 33 33 33 30 32 34 34 36 33 30 30 28 29 29 27 25 24 22 24 25 25 25 26 28 30 33 36 37 36 36 35 36
39 39 39 39 38 38 37 37 37 36 35 32 29 26 22 19 16 14 13 13 13 12 13 12 12 12 12 13 14 16 16 16 18 20 21 21 22 24 26 27 29 30 32 34 36 38 40 41 41 41 41 41 41 39 37 35 34 36 36 31 32 33 31 33 33 31 32 29 29 30 28 28 28 26 25 24 24 28 30 29 28 28 32 37 40 41 39 38
36 36 36 36 36 36 36 36 36 36 37 36 35 34 32 30 28 25 23 21 20 19 20 20 20 20 21 22 24 26 26 27 27 28 28 28 29 31 32 33 34 35 36 37 39 39 40 41 42 42 43 43 42 41 39 37 37 38 38 34 33 31 29 33 34 36 34 28 28 30 28 28 31 32 30 27 26 27 30 33 33 31 28 29 35 40 42 40
30 30 31 31 31 32 32 32 33 33 33 33 33 33 33 32 32 31 30 29 28 27 27 26 26 26 25 28 30 30 30 31 31 30 30 30 32 33 35 36 37 39 40 40 41 41 41 41 42 43 44 45 45 43 41 40 40 41 39 35 36 33 31 33 34 36 34 27 27 27 26 26 30 34 35 34 33 30 30 34 39 38 34 29 29 31 32 32
28 28 29 29 29 30 30 30 30 30 31 31 31 30 30 30 30 31 30 30 29 29 28 28 28 27 27 31 34 34 35 35 34 34 34 34 34 36 37 39 40 42 42 43 43 43 44 43 44 45 46 48 47 44 43 42 43 44 39 35 37 38 36 35 35 36 33 27 25 24 24 27 30 35 38 40 38 34 33 36 40 42 41 37 33 30 28 26
41 41 41 41 40 40 39 39 39 38 39 38 38 37 37 37 37 37 36 36 36 35 34 33 33 32 32 35 37 38 39 39 38 39 40 39 39 39 40 41 42 43 43 44 43 43 44 43 44 45 47 50 49 47 46 44 44 44 40 37 36 36 34 33 35 37 32 27 25 24 25 27 28 33 39 42 41 39 37 38 40 42 43 40 36 34 32 29
52 52 52 52 50 50 49 48 47 46 46 46 45 44 43 42 42 42 41 41 41 40 39 38 38 38 37 37 38 39 39 39 39 40 40 41 41 41 40 40 41 41 41 42 41 42 43 42 43 45 47 51 50 50 47 43 45 45 43 41 36 34 33 33 36 36 32 28 27 25 24 25 28 33 38 41 42 42 41 39 39 39 40 40 38 37 34 31
53 53 53 53 52 52 51 50 49 48 47 47 47 46 44 43 42 40 40 40 40 39 39 37 37 38 36 35 34 36 37 37 37 38 38 38 38 38 38 38 38 39 39 40 39 41 43 41 41 44 48 51 48 46 44 43 44 43 41 40 37 35 36 38 42 41 36 34 34 30 26 25 28 34 39 42 43 44 44 43 39 36 35 37 39 37 34 33
52 52 52 51 50 49 48 47 46 45 44 44 44 43 42 42 41 39 38 39 38 37 37 35 35 36 36 36 37 39 41 41 42 43 44 44 44 44 43 42 42 41 41 42 41 42 44 42 41 44 48 48 45 42 42 42 42 40 39 39 39 40 42 46 49 48 45 42 41 38 33 29 30 35 40 41 42 42 44 45 41 37 34 34 35 35 35 35
52 53 53 53 52 51 50 49 48 47 46 44 43 41 39 38 38 36 35 37 36 35 35 35 34 36 40 42 45 50 52 53 55 57 59 60 62 61 59 59 58 55 53 52 51 50 50 49 47 48 50 49 48 48 47 46 45 44 44 44 45 47 49 51 52 52 50 47 44 42 38 35 34 37 39 40 43 44 43 45 43 39 37 32 31 33 36 38
59 61 62 64 65 65 66 66 65 64 64 63 60 56 52 48 44 39 35 33 34 35 33 34 36 39 44 47 53 61 63 64 67 67 68 69 70 69 66 67 69 67 65 64 65 63 60 59 59 60 60 59 60 60 60 59 58 56 54 53 52 54 55 54 54 54 51 48 45 42 39 38 39 39 38 38 43 46 44 45 45 43 41 35 31 32 34 37
69 71 72 73 73 74 75 75 74 73 74 73 72 70 67 66 62 57 49 40 37 39 39 39 42 46 51 55 61 68 68 70 71 69 71 69 65 66 63 62 64 64 66 71 74 72 68 67 70 75 75 73 74 74 74 72 69 66 64 62 61 62 61 58 57 54 50 47 43 41 39 38 40 38 40 42 46 51 46 42 45 43 41 38 36 37 34 35
76 76 76 77 77 76 76 75 75 74 73 70 68 66 65 65 65 63 60 53 46 51 56 55 55 58 61 63 67 72 71 71 70 67 69 68 63 64 61 59 61 62 67 75 78 74 71 73 76 80 82 82 81 80 80 77 72 69 67 68 68 66 63 60 57 53 50 49 43 42 41 40 41 39 44 47 51 58 50 43 47 44 42 44 43 43 41 39
82 80 79 78 77 75 75 76 76 76 74 72 70 68 65 64 62 60 60 57 50 54 64 64 64 67 69 71 72 73 72 70 67 65 66 66 65 65 64 63 64 64 69 75 75 69 70 77 79 79 80 80 78 77 80 76 68 65 63 65 65 60 57 55 53 50 48 47 41 41 40 37 39 41 44 45 50 58 49 41 46 45 46 54 56 53 52 51
86 82 79 79 79 74 72 75 77 76 74 74 75 73 70 67 65 64 64 62 52 52 61 64 67 69 68 70 71 71 72 70 66 65 67 69 70 71 70 71 71 69 69 73 71 66 71 79 79 76 74 71 69 70 73 68 60 57 54 56 55 50 49 47 47 46 43 43 40 40 40 35 36 42 43 45 51 55 47 39 40 42 46 54 64 67 66 64
77 71 68 75 80 75 70 73 75 71 69 72 74 72 70 68 68 68 69 68 57 52 60 62 65 66 62 63 65 66 71 71 68 69 72 74 77 79 78 78 81 78 75 75 71 68 72 76 73 68 65 62 60 59 58 54 49 46 43 45 44 41 40 39 40 40 38 39 35 35 40 38 36 40 41 43 46 47 46 43 39 44 52 59 70 76 76 76
67 62 66 76 82 80 78 77 77 74 72 74 74 73 71 68 69 69 72 71 58 53 62 64 61 61 63 66 66 66 70 70 71 73 75 78 82 86 89 89 89 87 85 83 77 73 74 73 70 67 63 60 58 55 52 49 47 44 43 44 43 41 40 38 38 36 35 34 30 29 34 34 33 35 35 37 43 47 47 47 49 53 62 74 82 82 81 80
68 67 74 80 84 85 82 79 78 76 75 74 74 73 71 71 72 73 74 69 57 54 60 61 61 64 69 74 71 68 69 69 71 73 74 79 82 87 93 93 90 89 89 87 83 80 78 75 72 68 65 63 61 59 57 57 56 55 55 53 51 50 48 46 44 41 40 37 32 31 32 32 30 30 30 31 40 52 50 46 56 62 65 78 89 90 92 85
73 73 81 87 89 85 78 75 73 69 66 66 68 67 68 74 75 74 71 61 57 59 57 58 64 69 71 75 76 75 75 75 74 75 76 79 82 84 87 88 86 85 84 81 79 77 74 72 69 67 65 63 61 60 61 61 62 62 59 57 56 54 52 52 50 49 49 43 39 39 38 37 33 30 31 30 35 48 52 49 55 65 71 80 88 89 95 94
83 78 82 87 86 79 75 75 72 70 67 65 68 69 72 77 75 74 68 60 66 68 61 63 70 74 76 79 84 86 87 88 85 83 82 82 83 82 82 83 82 80 79 77 74 72 70 67 64 63 61 58 56 56 56 57 60 61 58 56 55 51 50 50 47 47 48 43 40 40 40 40 37 34 32 32 36 41 48 56 59 65 74 79 83 83 85 91
97 91 87 88 86 84 85 84 81 81 77 75 78 77 80 81 74 71 65 64 79 78 70 76 79 82 86 86 87 89 91 94 92 89 88 86 83 81 81 82 79 78 77 73 70 66 65 63 61 60 58 57 57 56 56 57 60 62 60 59 58 53 50 47 45 48 46 39 38 38 39 37 34 35 35 34 39 38 44 62 69 72 78 78 78 80 80 84
101 99 97 96 96 96 97 97 95 93 90 90 91 90 93 87 67 62 67 76 92 91 86 91 89 87 90 88 91 91 92 95 92 90 90 89 86 83 83 83 81 81 77 73 71 65 61 59 58 60 60 59 60 65 67 63 61 63 63 62 61 58 55 52 51 53 46 41 44 43 38 32 28 32 35 38 44 41 42 57 63 67 75 77 75 75 76 76
100 99 100 100 100 100 99 100 100 99 99 98 98 99 99 83 64 69 83 91 99 100 98 98 97 97 96 96 99 98 97 95 87 85 88 87 85 82 82 82 80 81 78 74 70 66 63 59 56 57 59 58 61 68 72 69 66 65 63 64 64 61 62 62 60 57 51 49 53 48 39 32 31 35 38 42 46 43 41 47 53 59 64 67 67 66 66 65
100 100 100 96 95 99 100 100 99 99 100 99 100 100 89 76 76 86 91 93 98 100 99 97 93 93 92 93 96 97 98 95 85 85 88 84 81 78 76 76 76 79 81 78 74 69 65 60 55 54 58 59 61 67 71 72 70 65 60 61 60 58 60 64 62 57 55 55 51 46 41 36 36 41 43 44 44 41 43 46 51 56 57 57 59 58 58 57
97 99 100 92 89 97 101 99 98 100 100 99 101 96 83 82 90 91 87 87 89 89 91 92 88 84 82 81 82 86 93 95 88 84 82 77 74 71 69 73 77 82 85 85 82 78 72 65 56 54 62 65 64 67 69 68 67 63 57 55 53 51 52 54 53 51 53 54 47 40 39 36 36 40 40 39 37 36 40 42 43 46 48 50 50 48 47 46
97 97 99 98 96 99 100 99 100 100 100 101 101 92 85 87 88 83 78 76 79 82 86 90 88 84 82 80 78 79 85 90 88 81 77 74 69 64 67 74 77 79 83 83 82 82 78 71 62 59 64 66 62 62 61 59 58 53 49 47 44 42 41 43 47 48 48 49 43 37 35 33 32 34 33 32 32 31 32 34 36 39 42 41 39 37 36 34
99 98 98 100 100 100 100 100 99 99 99 98 92 84 80 79 76 77 80 81 82 86 89 92 91 87 86 85 83 79 75 77 82 80 79 82 78 71 72 75 71 71 76 79 79 79 75 71 66 61 61 61 58 55 52 49 45 40 38 37 34 32 32 36 43 46 48 54 52 45 39 34 30 28 27 29 30 28 29 34 36 35 34 32 30 29 29 26
100 100 100 100 100 100 100 99 97 98 97 88 80 77 75 74 75 83 94 96 91 89 92 98 99 96 95 92 91 89 84 82 87 88 86 87 86 81 77 74 71 71 74 77 77 74 71 69 65 57 54 52 48 42 38 34 30 27 24 22 23 24 24 28 37 43 48 54 54 47 39 31 26 22 22 26 29 28 31 35 34 31 31 32 31 31 33 33
98 98 98 98 99 99 100 101 99 98 97 91 86 84 82 81 83 89 96 98 97 96 97 100 100 99 99 98 98 99 99 96 97 98 94 88 85 83 79 74 74 75 74 71 68 63 59 56 50 42 38 34 29 26 23 19 18 18 19 24 29 32 35 42 45 42 42 46 48 47 42 32 27 27 26 26 30 34 37 36 30 29 34 38 39 42 50 53
93 90 89 92 97 99 99 100 96 96 99 96 91 91 93 93 91 92 95 98 101 101 99 100 100 99 99 100 100 101 102 100 97 95 91 84 79 78 76 73 69 64 55 46 41 37 33 31 28 24 21 18 16 16 14 13 17 22 31 43 51 51 55 62 58 48 45 53 58 60 58 44 33 32 32 31 35 38 40 38 34 34 37 40 43 47 53 55
94 91 89 93 99 98 98 96 90 93 98 94 91 95 100 100 96 94 96 98 101 101 99 100 100 99 100 101 100 99 96 92 88 83 79 73 68 62 59 56 47 35 26 20 17 17 16 15 16 15 14 13 11 11 14 18 24 32 36 42 52 55 57 63 65 60 59 64 68 72 68 52 38 36 38 42 46 44 40 38 38 40 41 41 44 46 45 43
91 87 86 91 95 95 96 91 83 86 92 94 97 101 101 101 98 94 92 94 98 100 100 100 98 96 95 92 88 83 75 68 64 59 53 47 41 35 30 26 19 14 11 10 11 13 12 13 17 20 20 18 15 15 20 23 27 35 38 39 46 54 65 77 74 69 74 71 64 67 65 52 47 49 48 46 44 40 38 36 36 38 38 34 33 32 29 30
79 81 84 90 94 96 94 86 81 85 89 91 94 94 94 94 90 82 75 72 77 81 83 82 79 75 71 66 61 55 47 41 36 31 25 20 16 13 10 9 8 9 10 10 11 12 12 12 14 18 18 15 15 14 15 27 40 47 52 60 65 67 77 86 75 75 86 71 56 67 68 56 54 52 43 37 32 30 33 34 32 33 30 27 27 29 31 35
50 56 61 65 71 77 76 71 73 78 77 71 65 59 55 52 48 44 39 35 36 39 41 42 41 39 36 33 30 26 22 19 15 12 9 8 8 6 7 9 9 10 11 11 12 12 12 12 11 13 13 11 13 11 14 38 58 56 51 57 62 56 55 59 59 70 75 54 48 66 63 47 43 36 27 25 22 21 26 28 30 35 38 40 44 47 46 47
18 20 22 24 29 36 38 38 42 45 43 38 30 23 19 16 15 14 13 12 12 12 13 13 13 12 11 10 9 9 8 7 7 7 5 6 8 8 9 10 11 12 12 12 13 12 12 12 12 12 12 11 12 12 19 38 50 45 35 28 26 23 21 23 29 35 34 24 28 37 29 21 23 18 14 15 13 12 15 16 20 27 34 37 36 35 32 30
6 7 7 7 9 11 12 13 14 14 15 13 10 8 8 6 6 6 5 5 5 5 5 5 4 5 5 5 6 6 6 7 8 8 8 9 11 11 12 12 12 13 13 13 13 13 12 12 12 12 12 11 12 11 14 20 22 21 18 13 10 11 11 11 12 11 12 14 16 14 10 11 11 8 8 8 8 10 10 10 11 11 14 14 12 12 12 12
5 5 5 5 5 5 5 5 5 5 5 5 4 5 5 4 4 4 4 4 4 4 5 5 5 6 6 7 8 8 8 10 11 11 11 12 13 13 13 14 14 14 14 14 13 12 12 12 12 12 11 11 11 11 10 10 10 10 10 10 10 10 9 8 9 8 9 10 10 8 8 9 7 7 8 7 8 10 9 10 9 7 7 7 7 9 10 11
7 7 8 8 7 7 7 7 7 7 6 6 6 5 5 5 5 5 5 5 5 6 6 7 8 8 9 10 11 11 12 12 13 13 14 13 14 14 14 14 14 14 14 13 12 12 12 11 12 11 11 11 10 11 10 9 10 10 9 9 8 8 8 8 8 8 8 9 10 9 10 9 9 9 10 10 11 10 11 12 11 9 10 9 10 11 13 16
11 13 13 13 13 12 12 12 11 11 10 9 9 8 8 8 7 8 8 7 8 8 9 10 10 11 12 13 13 14 14 14 14 14 14 15 14 14 14 14 14 14 14 12 12 12 11 11 11 10 10 11 9 9 9 9 9 9 8 8 8 7 8 8 8 9 10 11 11 11 12 12 12 11 13 14 14 12 12 13 12 13 13 14 19 26 35 43
16 18 18 18 17 16 15 15 15 14 13 12 12 12 11 11 11 11 11 11 11 11 12 13 13 14 14 15 15 15 15 15 14 14 14 14 14 14 14 14 13 13 13 12 11 11 10 10 10 10 10 9 8 9 9 9 10 10 9 8 7 7 8 9 10 12 12 13 13 13 14 14 14 15 16 15 14 13 13 12 13 13 13 15 19 25 36 49
19 20 20 19 18 18 17 17 16 16 15 15 15 14 14 14 14 14 14 14 14 14 15 15 15 16 16 15 15 15 15 15 14 14 14 13 13 13 12 12 12 12 11 11 10 9 10 10 9 10 11 10 9 10 11 13 14 11 8 7 8 9 10 11 12 13 13 13 14 14 15 15 17 18 18 16 15 14 13 13 13 12 12 13 14 15 19 24
Wind_Speed
25 24 23 22 22 21 20 20 19 19 19 18 18 18 18 18 18 17 17 17 16 16 16 16 16 16 16 16 17 17 18 19 19 19 19 19 20 20 21 21 21 21 20 20 21 21 21 21 21 21 20 20 18 17 16 16 18 18 19 19 20 21 22 22 23 23 23 23 23 21 19 20 20 20 20 22 24 25 25 27 29 26 27 28 27 27 25 25
25 24 23 22 21 21 21 20 20 19 19 19 19 20 20 20 20 19 19 19 19 19 19 19 18 19 19 19 19 20 21 22 23 22 22 22 22 23 23 23 23 22 21 21 21 22 22 22 22 21 20 18 18 18 18 19 20 20 21 21 20 23 24 24 24 25 25 24 25 24 22 21 21 21 21 21 22 25 24 26 30 29 27 29 28 27 25 25
24 24 23 23 22 22 22 21 21 21 21 21 21 21 21 22 22 22 21 21 21 21 21 21 21 21 21 22 22 22 24 25 26 25 25 24 25 25 25 25 24 23 23 23 23 23 23 23 22 20 19 18 19 20 20 21 22 22 23 23 23 25 25 25 26 27 27 26 26 27 26 25 23 22 22 22 23 24 25 26 30 31 29 29 29 27 24 24
25 25 24 24 24 24 24 24 23 23 24 23 24 24 24 24 24 24 24 24 24 24 24 24 24 24 24 24 25 25 26 28 29 28 27 27 27 27 27 26 26 25 24 24 24 24 24 23 22 21 20 20 21 22 23 23 24 24 24 25 26 27 26 27 28 28 28 28 28 29 29 28 26 25 24 25 23 21 24 28 28 29 30 29 28 27 24 23
27 27 27 27 27 26 26 26 26 26 26 26 26 26 26 26 27 27 27 27 27 27 27 27 27 27 27 27 27 27 29 30 30 29 29 29 30 29 29 28 27 26 25 24 24 24 24 24 23 23 23 23 23 24 25 25 27 27 25 26 27 29 28 28 29 28 29 30 29 30 31 30 29 27 26 27 24 19 24 30 29 27 28 28 26 25 24 23
30 29 29 29 29 29 29 29 29 29 29 29 29 29 29 29 29 29 29 29 29 29 29 29 29 29 29 29 30 30 30 33 33 31 30 31 31 30 29 27 26 25 25 25 25 25 25 25 25 25 25 25 26 27 28 28 29 29 26 27 28 29 29 28 30 29 29 31 30 32 33 31 31 30 29 28 24 20 25 31 30 28 26 25 23 23 24 23
32 32 32 32 32 32 32 32 32 32 32 32 32 31 32 31 32 32 32 32 31 32 31 31 31 31 32 31 32 32 31 35 36 33 32 31 30 29 28 27 26 26 26 26 26 26 27 27 27 28 28 28 29 29 31 30 31 30 26 27 28 28 28 29 31 30 30 31 31 33 34 32 33 33 30 27 25 23 27 32 31 29 27 24 23 24 25 24
33 33 33 34 34 34 34 34 35 35 35 35 35 34 34 34 34 34 34 34 34 34 33 34 34 33 34 33 33 32 31 35 37 34 32 30 29 28 27 27 27 27 27 27 28 29 29 30 30 31 31 31 31 31 32 32 32 30 27 28 29 28 29 31 32 31 32 33 33 34 33 31 33 35 31 26 26 26 30 33 31 30 30 28 27 27 27 26
33 33 32 33 33 33 33 34 34 35 35 35 36 36 36 36 37 37 36 36 36 36 36 36 35 35 34 33 33 30 29 35 36 33 31 30 28 28 27 27 28 28 29 30 31 32 32 33 33 33 33 32 32 32 32 34 34 32 30 30 30 30 31 32 33 33 35 35 36 36 33 30 32 34 30 27 29 29 31 33 32 32 32 32 31 30 29 28
32 32 31 31 31 31 31 32 32 33 33 34 34 34 35 36 36 36 37 37 36 36 36 35 34 34 32 31 29 26 27 33 33 31 31 29 29 28 28 29 29 30 31 32 33 34 34 35 34 35 35 33 32 33 34 35 35 34 33 32 32 32 32 33 34 35 37 38 37 38 34 29 31 32 28 28 33 32 31 32 34 35 33 34 34 32 30 29
33 33 32 32 32 31 31 31 31 31 31 32 32 32 33 33 34 34 34 34 34 34 33 33 32 31 29 28 25 23 27 31 31 31 31 30 30 30 30 31 32 33 33 34 35 35 36 36 36 37 36 35 34 35 35 35 36 36 36 35 34 34 34 33 35 36 38 38 37 39 37 29 30 32 27 29 35 34 33 32 33 35 34 34 34 33 32 30
35 35 35 35 34 34 34 33 33 33 32 32 32 32 32 32 32 32 32 32 32 32 32 31 30 29 29 26 24 25 28 30 31 32 32 32 32 32 33 34 34 35 35 35 36 36 37 37 37 38 38 37 36 36 36 36 37 37 38 39 36 36 36 34 35 36 38 38 37 41 42 33 30 31 29 31 33 33 34 32 32 34 34 34 34 34 33 32
38 38 37 37 37 37 36 36 36 35 35 34 34 33 33 33 33 33 33 33 32 32 32 32 31 31 30 27 25 28 30 31 32 34 34 34 34 34 35 36 36 37 37 37 37 38 39 39 39 39 38 39 39 38 38 38 38 38 41 42 39 39 38 35 35 35 37 39 39 44 47 40 31 30 33 34 33 33 34 32 31 33 35 35 35 35 34 34
39 39 39 39 39 38 38 38 38 37 37 37 36 36 36 36 36 36 36 35 35 35 35 35 34 34 34 30 28 31 33 33 35 36 37 36 36 37 37 38 38 38 38 39 39 40 40 41 41 41 40 40 40 40 40 41 39 39 42 44 43 43 40 37 36 34 37 41 41 45 50 46 34 28 33 37 35 35 36 33 31 33 34 35 36 37 36 35
40 40 40 40 39 39 39 39 39 39 39 38 38 38 38 38 38 38 38 38 38 38 38 38 38 38 37 33 31 33 34 36 37 38 38 38 38 38 38 39 39 40 40 40 41 41 42 42 43 43 42 41 41 41 42 43 43 41 44 45 45 46 44 42 39 35 36 41 44 46 49 49 40 29 31 35 36 37 38 34 31 32 34 33 34 36 37 37
40 40 40 40 40 40 40 40 40 40 39 39 39 39 39 40 39 40 40 40 40 40 40 40 40 41 40 36 33 35 36 37 39 38 39 39 39 40 40 41 41 41 42 41 42 42 42 43 43 43 43 41 42 43 44 46 46 44 46 47 46 47 47 46 44 39 38 43 46 46 47 48 44 35 30 33 37 39 39 35 31 32 33 32 33 34 35 36
42 42 41 41 41 41 41 41 41 41 41 41 41 41 41 41 41 41 41 41 41 41 41 41 41 42 42 38 36 36 36 38 39 39 40 39 40 40 41 41 41 41 42 42 42 42 42 44 44 45 44 41 42 44 46 49 48 47 48 49 48 48 49 48 45 42 42 45 46 47 47 47 46 41 33 31 35 38 38 36 32 32 33 34 35 35 35 37
43 43 43 43 43 43 43 43 43 43 42 42 42 42 42 42 42 42 42 42 42 42 42 42 42 42 42 40 38 37 37 39 40 40 40 39 40 40 41 41 41 42 43 43 43 43 44 45 45 47 44 41 42 45 48 50 49 49 50 50 51 51 50 49 47 46 46 46 46 47 48 47 47 45 40 35 36 37 37 35 33 33 33 35 36 36 38 39
44 44 44 44 44 43 44 44 44 44 44 43 43 43 43 43 43 44 44 43 43 43 44 43 42 43 42 41 39 38 38 38 40 40 39 39 40 40 41 42 42 43 43 44 44 44 45 47 48 47 43 42 46 48 48 49 50 51 51 51 53 52 52 49 48 49 48 46 46 46 47 48 48 47 45 42 40 38 37 36 35 35 34 35 35 37 39 39
44 44 44 44 44 44 45 45 45 45 45 45 44 44 44 44 44 45 44 43 44 44 44 44 43 42 42 42 41 41 40 40 40 40 39 40 41 41 42 42 42 43 44 45 45 45 45 49 49 46 42 45 49 50 48 48 50 52 52 52 53 53 52 50 49 50 50 49 49 48 46 47 47 48 48 46 44 41 38 38 38 37 36 35 36 37 38 37
44 44 44 44 45 45 46 46 46 46 46 46 46 46 46 45 46 47 45 44 44 44 44 44 44 43 43 44 44 43 43 43 41 40 40 40 41 43 43 43 43 44 45 45 46 46 47 50 49 45 44 47 49 50 50 49 50 52 53 53 53 53 53 52 51 51 51 51 52 52 51 48 47 48 49 48 48 45 40 39 39 38 37 38 37 36 35 35
46 46 46 46 46 47 47 47 48 48 48 48 47 47 47 47 48 48 48 46 45 45 46 46 46 46 46 46 46 45 46 45 43 41 41 41 42 44 44 44 45 46 47 46 46 48 50 50 49 46 47 49 49 50 51 51 51 52 53 54 54 54 54 55 55 53 53 53 53 54 54 52 49 48 49 49 48 46 42 39 39 37 38 38 37 36 35 34
48 48 48 48 49 49 49 50 50 50 50 49 49 49 49 49 49 50 51 50 47 46 48 49 49 49 49 48 47 47 48 47 46 43 41 42 43 44 45 46 46 47 47 46 46 48 51 52 49 47 49 50 50 50 50 51 52 52 53 54 55 55 55 56 56 56 54 52 53 53 53 53 52 50 49 48 47 46 43 41 40 39 38 38 37 36 36 35
51 50 50 50 50 51 52 52 53 53 53 52 52 51 51 51 52 51 51 53 51 48 47 49 51 51 50 50 49 49 49 47 47 44 42 42 43 42 44 45 46 46 46 45 45 47 50 51 48 46 48 48 49 48 48 49 50 51 52 52 53 53 54 54 54 55 53 52 52 51 51 51 51 50 48 47 46 46 46 45 43 43 42 40 38 36 36 35
52 51 50 50 51 52 53 54 54 54 54 55 54 54 54 54 54 54 53 54 54 52 48 49 51 51 51 51 50 50 49 47 46 44 42 41 40 40 40 41 42 43 43 42 44 46 46 46 45 46 46 45 46 45 44 45 46 48 47 46 47 48 49 50 50 51 51 52 53 51 51 51 51 50 48 48 46 46 48 47 44 45 43 40 40 39 36 34
51 51 51 52 52 53 53 54 54 54 54 54 54 54 54 55 55 55 55 56 56 55 53 51 51 51 51 51 50 49 47 45 44 42 39 38 38 38 38 38 38 40 40 40 42 43 41 40 41 42 42 42 41 39 39 42 43 44 43 42 43 45 46 47 48 50 50 51 53 53 53 54 52 50 50 50 48 48 51 50 47 45 43 40 39 37 32 30
52 53 54 54 53 54 54 54 54 54 54 54 53 53 53 53 54 53 53 54 56 56 56 55 52 50 49 48 48 46 44 43 42 40 38 37 37 37 38 38 36 38 39 39 40 40 38 37 38 39 39 40 39 38 40 42 43 44 44 44 45 45 47 48 49 51 52 53 54 55 55 56 54 53 52 52 51 53 53 53 52 47 43 41 39 34 27 27
54 55 54 54 54 54 54 54 54 55 55 54 54 54 53 52 51 51 51 52 55 55 54 53 51 48 46 44 44 43 42 41 40 39 38 37 37 37 38 38 37 38 38 39 40 40 38 38 39 40 41 41 41 42 44 45 45 46 46 46 47 47 48 50 51 53 54 55 56 57 57 58 57 56 57 56 56 57 55 54 54 49 42 38 37 35 33 37
56 54 51 52 52 51 52 52 52 52 52 53 53 53 52 51 50 48 49 51 54 53 51 49 48 47 45 43 41 41 41 41 41 40 39 38 38 37 37 38 39 39 39 40 41 42 42 42 43 44 44 45 46 47 47 47 48 47 47 49 49 50 51 52 54 55 56 58 58 57 58 58 57 56 58 59 58 58 57 56 53 49 46 41 40 39 40 48
56 51 47 48 49 48 49 49 48 48 49 50 51 51 50 49 46 45 48 51 52 50 48 47 47 45 45 44 44 43 42 43 42 42 42 41 41 41 41 41 42 42 43 43 43 44 45 45 46 46 46 47 48 48 49 48 48 49 49 52 53 54 55 55 56 57 57 60 61 59 59 59 59 58 59 60 60 59 59 58 55 51 50 48 48 48 47 54
55 52 47 48 49 49 49 49 48 47 47 48 49 49 48 48 46 47 50 51 49 47 47 48 48 46 47 47 47 46 45 45 44 44 44 44 44 44 45 46 46 47 47 47 47 47 48 48 49 49 48 49 50 51 51 50 50 51 52 54 55 57 59 59 61 61 60 62 62 61 61 61 62 61 61 61 61 61 60 58 57 55 53 53 54 56 55 56
51 53 51 49 50 50 48 48 48 48 48 48 48 48 47 48 49 51 53 50 48 48 47 48 48 47 49 49 49 49 49 47 46 45 45 45 45 45 46 47 48 49 49 51 52 52 51 51 52 52 52 52 53 54 54 53 53 53 54 55 56 59 61 62 64 63 64 65 64 64 64 65 67 65 64 63 59 60 60 58 57 56 56 55 55 57 58 59
47 49 50 49 49 48 47 47 46 46 46 46 46 47 46 48 50 52 52 48 47 48 47 47 49 49 51 51 51 51 49 48 47 46 47 46 46 47 46 47 48 49 50 52 54 55 56 55 55 55 54 54 54 53 53 53 54 54 54 54 56 58 60 63 63 63 65 66 65 66 66 68 70 68 66 64 60 59 60 59 59 59 57 57 57 59 61 63
48 47 48 48 48 48 48 47 45 43 43 43 43 43 45 50 52 51 49 45 44 45 44 45 47 48 49 50 50 50 49 49 49 48 49 49 49 48 47 47 48 49 51 52 54 56 57 58 58 58 58 57 55 53 52 53 55 56 56 56 57 58 58 60 61 62 65 65 64 67 69 69 69 68 67 66 64 63 62 62 62 62 61 61 62 62 64 66
50 49 47 46 46 45 45 46 45 45 44 44 44 46 49 52 50 48 47 44 43 43 44 45 47 48 49 50 50 51 51 52 52 50 49 50 51 51 51 51 51 50 50 51 53 56 57 58 60 60 60 58 56 55 55 55 56 59 60 59 60 59 56 57 59 61 63 64 65 67 69 69 66 65 66 66 65 66 65 64 64 64 64 63 63 63 64 66
53 52 51 50 49 47 46 47 47 47 46 46 46 49 51 50 47 48 48 46 45 47 48 49 50 51 53 53 54 53 52 52 53 52 53 54 54 54 53 52 51 50 49 51 52 54 57 59 60 60 60 60 58 56 56 55 56 59 60 59 60 57 55 57 60 60 60 63 67 67 68 68 65 64 66 67 66 66 65 65 65 67 67 65 64 65 66 67
56 56 54 53 52 51 50 49 47 47 47 48 48 49 49 49 48 50 49 47 48 49 49 51 52 52 52 53 54 53 52 52 54 55 55 57 57 57 55 53 53 53 53 54 54 54 55 58 60 59 59 61 60 58 58 57 57 58 58 58 59 58 58 58 59 60 60 63 66 65 65 64 62 63 65 66 66 65 64 64 63 64 65 65 65 66 66 67
57 57 56 55 54 54 54 53 53 53 54 56 56 54 53 52 51 49 48 47 48 50 51 52 52 52 51 51 52 54 55 56 56 56 55 56 57 58 57 57 59 59 59 58 56 56 57 58 60 60 60 62 61 60 61 61 60 59 58 57 57 58 59 58 58 60 59 60 61 60 59 60 60 60 61 62 63 63 61 60 58 59 60 62 64 64 65 65
58 58 57 58 59 58 59 60 60 57 56 59 59 57 56 53 49 47 46 47 50 52 52 52 51 51 51 51 52 55 56 56 56 57 57 57 58 60 60 62 64 64 62 61 60 61 61 62 64 65 64 64 65 64 63 61 60 59 58 58 57 58 59 58 58 58 58 59 61 61 61 60 58 57 57 58 61 63 61 59 57 58 58 61 62 63 63 63
65 63 62 62 62 61 60 59 58 55 52 54 53 52 52 51 48 47 48 49 50 51 51 51 51 51 52 53 53 54 55 56 56 57 59 60 60 62 63 64 65 64 64 64 65 65 64 64 66 66 65 66 65 64 60 57 57 57 57 56 56 57 57 56 57 56 57 61 63 63 65 60 54 52 53 55 58 61 61 60 60 60 60 62 62 62 61 61
70 69 67 66 64 62 61 60 61 58 55 54 54 52 51 49 48 49 50 52 52 53 53 54 54 55 56 56 56 56 58 59 59 60 62 63 63 64 65 66 65 66 66 66 65 65 64 64 64 63 62 62 60 57 57 57 55 55 54 52 52 53 53 54 57 55 55 60 61 61 65 60 52 51 53 54 55 58 60 62 63 63 63 63 63 63 63 64
69 69 68 66 65 64 64 64 64 62 58 57 56 54 52 51 50 52 53 55 56 57 57 58 59 59 59 60 61 62 64 65 66 66 67 68 67 67 69 68 68 67 66 65 64 63 62 62 62 61 60 58 56 54 55 57 55 55 54 52 52 54 54 56 59 58 56 59 59 59 65 63 55 53 55 55 55 57 62 65 65 65 65 65 65 67 69 70
68 67 67 66 65 64 65 65 66 65 63 59 55 54 55 56 56 57 59 60 62 63 64 64 65 65 65 66 67 69 69 70 71 71 70 70 69 68 69 67 66 64 62 61 61 60 60 60 60 60 58 56 55 53 54 55 54 55 55 53 53 54 54 55 57 57 58 60 59 61 66 65 59 56 57 58 59 61 65 67 67 68 68 69 72 73 75 76
66 65 64 64 63 64 65 66 66 65 64 62 61 60 61 62 64 64 64 65 67 69 70 71 72 72 72 72 72 72 72 72 72 71 69 68 67 66 64 62 60 59 57 57 58 58 59 59 60 61 61 59 57 55 55 53 52 53 53 51 50 51 51 53 55 56 60 62 62 64 67 66 63 64 64 64 66 67 68 69 70 71 72 73 75 75 75 75
66 65 65 65 66 67 67 67 66 66 65 66 66 65 65 67 67 67 65 65 65 67 68 70 71 71 71 71 71 71 71 70 70 68 66 64 63 61 59 57 56 56 56 57 58 58 60 60 60 62 63 62 60 59 56 53 52 53 55 54 53 54 55 59 60 62 65 68 68 69 70 70 70 71 70 69 71 72 71 71 71 72 72 71 71 71 72 73
69 69 69 69 70 71 70 69 69 69 68 68 68 68 68 68 68 66 65 65 65 65 66 66 66 66 66 67 66 66 65 65 65 64 62 60 59 58 56 56 56 56 56 57 58 59 61 62 61 62 63 63 62 61 58 57 59 61 61 62 62 63 64 66 69 71 72 74 74 74 75 76 74 73 72 72 73 74 74 73 73 73 74 74 76 77 79 79
70 71 71 70 71 72 71 71 70 69 69 68 69 70 69 69 69 69 67 66 65 64 64 65 65 64 63 63 63 62 61 61 61 61 59 57 57 57 57 56 57 57 57 58 60 61 62 63 62 62 64 63 63 62 61 62 64 66 66 66 66 66 67 69 72 74 73 75 77 75 75 77 76 74 73 72 73 75 76 76 76 77 78 80 82 83 84 84
70 70 70 70 70 70 70 69 68 67 67 67 69 69 68 68 68 68 67 66 64 63 62 63 63 62 61 60 61 61 59 59 59 58 57 57 57 58 58 58 58 58 58 60 61 61 64 65 63 63 65 64 63 64 63 64 66 67 67 68 67 67 68 70 72 73 72 75 77 75 74 76 76 75 74 74 75 77 78 80 80 79 80 81 81 82 83 84
69 68 68 68 68 68 67 66 65 65 65 66 67 66 65 65 65 65 64 63 62 61 61 61 60 59 59 58 59 59 58 58 59 58 57 58 58 59 60 60 60 60 59 60 61 62 65 66 64 65 67 66 64 64 64 65 67 67 67 68 67 68 69 70 71 71 71 74 76 75 77 78 77 76 77 78 79 80 80 82 83 82 82 83 83 83 83 83
68 67 66 67 66 66 65 64 64 64 64 64 65 64 63 62 61 61 62 61 60 59 59 60 60 59 58 58 58 58 58 58 59 59 59 59 60 60 61 61 61 60 60 61 62 63 65 66 65 66 68 67 65 64 65 66 67 68 69 69 69 69 70 70 70 70 72 76 77 78 80 81 80 80 81 82 83 83 83 84 84 84 84 84 84 84 83 83
68 67 66 66 66 65 65 64 64 64 64 64 63 61 60 60 59 59 61 60 58 58 58 58 59 58 58 58 58 58 59 59 59 60 60 60 61 61 62 62 62 62 62 62 63 64 64 66 65 65 68 68 65 65 67 68 69 71 71 70 70 70 71 71 71 72 75 77 79 81 83 84 83 83 84 85 85 85 86 86 86 86 86 86 86 85 85 84
67 67 66 66 66 65 65 64 63 64 64 62 61 59 59 59 58 58 60 60 58 57 57 57 58 58 59 59 59 59 60 60 60 60 61 61 62 62 62 62 62 62 63 63 64 64 63 65 65 66 69 70 67 67 70 71 73 75 73 71 70 71 72 74 75 76 77 80 83 85 86 86 85 84 85 86 87 87 87 87 87 88 88 88 88 87 87 87
Wind_Direction
259 260 261 263 264 264 265 265 265 264 263 262 262 260 258 258 259 260 261 262 264 266 267 269 272 275 277 280 283 286 289 289 288 287 288 289 288 288 287 285 284 283 283 282 282 282 282 283 284 285 286 286 287 287 288 291 293 296 297 299 301 296 292 293 292 291 293 297 301 305 303 299 298 300 302 301 298 294 292 288 286 284 282 280 280 279 280 280
257 257 258 259 259 260 260 261 261 261 261 262 262 261 261 261 262 263 265 266 267 268 270 271 273 275 278 280 283 286 288 288 286 286 286 286 287 287 285 284 283 282 281 280 279 279 280 281 281 282 282 283 284 285 288 291 292 294 295 298 298 292 292 293 291 291 293 295 297 299 298 295 294 298 303 303 298 297 293 286 284 285 284 284 285 285 285 284
254 254 254 255 255 256 257 258 258 259 260 261 262 263 264 264 265 266 267 269 270 271 272 273 275 277 279 281 283 285 287 286 285 285 286 286 286 285 284 283 283 282 281 280 279 279 279 279 279 278 278 279 281 284 288 290 290 293 296 297 294 291 292 293 292 292 293 294 293 293 294 293 292 294 299 299 300 301 294 284 283 287 289 288 288 289 289 288
251 252 253 253 254 255 256 257 258 259 261 262 263 264 265 266 267 267 268 270 271 272 273 274 275 277 279 281 282 284 285 285 284 284 286 286 285 285 284 284 282 281 280 279 279 278 278 278 277 276 276 278 281 285 288 289 289 292 295 294 293 292 292 292 293 294 294 294 292 292 291 290 290 290 292 294 301 307 296 287 287 291 293 293 292 292 291 290
251 252 253 254 255 257 258 259 260 261 262 263 263 264 264 265 266 267 268 269 270 272 272 274 275 276 278 279 281 282 283 283 281 282 284 284 284 285 285 283 281 280 279 278 278 278 278 277 276 276 276 279 282 285 287 289 290 292 294 292 292 291 292 293 293 294 294 293 293 290 288 288 289 287 287 289 299 308 296 290 292 294 295 298 299 296 293 291
252 254 255 256 257 258 259 260 261 261 262 263 263 264 264 265 265 266 267 268 269 270 271 272 273 275 276 278 279 280 282 281 279 280 281 282 283 284 282 280 279 278 278 278 279 279 279 278 278 277 279 281 283 286 288 289 289 291 292 290 289 290 293 295 293 295 295 293 293 289 287 288 288 285 283 287 295 299 290 286 288 289 292 299 303 299 295 295
254 255 256 257 257 258 258 259 259 260 261 261 262 263 264 264 265 266 266 267 268 269 270 271 272 273 274 276 277 279 280 279 278 279 279 280 281 280 278 278 278 278 279 280 281 281 281 281 281 281 283 283 285 287 288 289 288 289 291 288 287 290 293 294 295 298 297 295 292 288 288 288 288 286 284 288 292 289 282 279 281 284 287 292 297 298 297 298
253 254 255 256 257 258 258 258 259 259 259 260 260 261 262 263 263 264 265 266 267 268 269 270 271 272 273 275 275 277 277 274 275 277 277 277 276 275 275 275 277 278 280 282 284 284 284 284 284 285 285 285 287 288 288 288 287 289 288 286 288 290 292 294 296 298 297 296 292 289 289 289 287 288 290 292 287 280 276 275 277 280 283 287 292 296 298 299
253 253 254 255 256 257 258 259 259 259 260 260 260 260 261 261 262 263 264 265 266 267 268 269 270 271 272 272 273 275 273 270 273 275 275 274 272 272 273 274 275 278 280 282 284 285 286 286 286 286 285 286 288 288 287 287 287 288 287 286 288 289 291 293 295 297 295 293 291 290 291 293 290 289 294 293 282 275 274 277 278 277 280 284 288 293 295 297
253 254 254 255 257 258 259 259 260 260 261 261 261 261 262 262 262 263 264 265 265 266 267 268 268 269 270 270 271 272 267 267 271 273 273 272 271 272 272 273 275 277 280 282 284 285 286 286 286 286 286 287 287 286 286 287 288 288 287 286 287 288 289 292 295 295 292 290 292 292 292 293 290 289 294 288 280 277 275 277 280 279 280 282 285 288 289 291
254 254 255 256 257 258 259 260 261 261 262 263 263 263 263 263 264 264 264 265 265 266 266 267 267 267 268 268 270 268 264 267 271 272 272 272 272 273 274 275 277 279 281 283 284 285 286 286 287 287 287 288 286 286 286 286 287 287 287 286 286 287 288 292 293 292 292 293 295 293 290 289 287 289 292 285 282 282 280 278 279 280 281 280 281 283 284 287
255 256 257 258 258 259 260 261 262 262 263 264 265 265 265 265 265 265 265 265 265 265 265 266 266 266 266 268 269 267 265 268 271 272 273 274 274 275 276 277 279 280 282 283 284 285 285 286 287 287 288 288 287 286 286 286 286 287 287 285 285 286 286 289 292 294 296 296 296 292 289 287 285 288 289 284 285 286 285 283 282 281 280 279 278 279 281 283
257 258 258 259 259 260 261 261 262 263 263 264 265 265 266 266 266 266 266 266 266 266 266 266 267 267 266 267 267 267 268 269 270 272 273 274 276 277 278 279 280 281 282 283 284 285 285 286 287 287 288 288 287 288 287 286 286 287 286 285 285 284 285 289 293 298 299 296 295 291 289 287 286 289 288 286 287 287 287 287 286 283 281 278 277 277 278 278
257 258 258 259 260 260 261 262 262 262 263 263 263 264 264 265 266 266 267 267 267 267 267 268 268 268 268 268 267 267 269 270 270 271 273 274 276 277 278 279 280 281 282 283 284 285 286 286 286 287 287 287 288 288 287 286 286 286 285 285 286 285 286 289 291 296 296 293 291 289 287 288 289 290 288 288 288 287 286 286 285 283 281 279 278 277 276 275
257 258 258 259 260 260 261 261 262 262 263 263 263 264 264 265 265 266 266 267 268 268 269 269 269 269 269 269 268 268 269 270 270 271 273 275 275 276 277 278 280 281 282 283 284 284 285 285 286 286 286 286 287 288 288 287 286 286 285 285 287 288 290 290 290 293 293 290 288 286 286 290 293 293 290 290 290 287 285 285 284 281 280 280 278 276 276 276
258 259 259 260 260 261 261 261 262 263 263 264 264 265 265 265 265 266 267 267 268 269 269 270 271 271 271 270 268 268 269 269 270 272 273 274 275 276 277 278 280 280 281 282 283 283 284 284 284 284 285 286 287 288 288 286 285 286 285 285 288 289 290 290 292 296 293 287 284 285 286 290 294 295 293 294 292 288 287 288 286 282 279 278 277 277 277 277
259 259 260 261 261 262 263 263 263 263 264 264 265 265 266 266 267 267 267 267 268 268 269 270 270 271 272 271 269 268 269 269 270 271 272 273 275 276 277 278 279 280 281 281 281 282 283 283 283 283 283 286 287 287 285 284 286 287 287 288 288 288 288 289 293 295 290 285 285 286 287 289 291 292 293 291 288 288 289 291 290 285 281 278 278 278 277 276
259 260 261 261 262 263 264 264 265 265 265 265 265 266 266 266 267 267 267 267 268 268 268 269 270 270 271 272 271 269 269 269 270 271 272 274 275 276 276 277 278 279 280 280 281 282 282 282 282 281 283 286 286 283 283 285 287 288 288 289 289 289 290 291 294 293 288 286 287 288 288 289 290 293 294 291 288 288 289 291 291 287 283 281 280 279 278 277
261 262 262 263 263 264 264 265 265 266 266 266 266 267 267 268 268 268 268 268 268 268 268 268 269 270 271 272 271 270 269 269 270 271 272 274 275 275 276 276 277 278 278 279 280 280 281 281 280 281 285 286 282 280 282 285 286 286 287 288 288 289 290 291 293 290 289 289 288 287 287 288 290 293 294 293 291 290 291 292 290 288 286 283 280 278 278 279
262 263 264 265 265 265 266 266 267 267 268 268 268 268 269 269 269 269 269 269 269 268 269 269 269 269 271 272 271 270 269 269 269 271 272 273 274 274 274 275 275 276 276 277 278 278 278 279 279 282 284 283 281 282 283 283 283 285 286 286 287 288 289 290 289 288 289 290 289 288 286 285 287 290 291 292 291 290 290 290 289 289 288 285 281 279 280 281
263 264 265 266 267 267 268 268 269 268 269 269 269 269 270 270 270 270 270 269 269 270 270 270 271 271 272 272 273 274 274 272 272 272 273 273 273 273 273 273 274 274 274 274 276 277 276 277 279 281 281 279 281 282 282 281 282 283 284 285 285 286 287 287 287 288 290 290 290 290 288 286 286 287 288 290 291 290 289 287 286 287 286 284 283 283 283 282
264 264 265 266 267 268 269 269 270 270 270 271 271 272 272 271 271 271 271 269 269 271 271 272 272 273 274 274 276 277 277 278 277 275 274 273 273 273 273 273 273 273 273 273 274 275 275 275 277 278 278 277 278 278 279 280 281 281 282 283 284 285 286 286 287 287 288 288 288 288 288 288 288 287 287 288 290 291 290 286 283 282 280 281 283 283 281 280
265 266 267 267 268 269 269 270 270 270 271 271 272 273 273 274 274 273 273 272 270 270 272 274 274 274 275 276 278 279 279 280 280 278 276 273 272 272 272 273 272 272 273 273 272 273 274 274 275 275 275 275 275 276 277 278 279 281 281 282 283 285 285 286 288 287 287 287 286 287 287 289 290 290 291 292 293 295 292 289 287 284 281 281 282 281 279 277
266 266 267 267 268 268 268 269 269 270 270 271 271 272 272 273 274 274 275 275 273 271 271 273 274 275 277 279 280 281 282 283 283 281 278 275 273 272 271 271 272 271 271 271 270 270 272 274 275 274 273 274 275 276 277 278 279 280 280 282 284 285 286 287 288 289 289 289 288 289 290 291 292 294 295 297 298 299 296 295 294 292 292 291 287 283 280 278
264 264 265 266 266 267 268 268 269 269 269 270 270 270 270 271 272 273 274 275 274 274 273 272 273 275 278 280 282 283 285 285 284 283 280 278 276 273 272 271 270 271 270 269 269 269 270 272 274 274 273 274 275 277 280 280 279 279 280 283 285 285 286 288 289 290 291 292 292 293 293 293 294 297 299 299 301 301 298 297 298 298 299 297 292 290 288 282
262 263 263 264 265 267 267 267 268 268 268 269 269 269 269 270 271 272 273 274 274 274 275 274 274 276 278 281 284 285 287 286 285 284 282 280 277 275 273 271 270 271 270 269 269 270 270 270 270 271 273 274 276 279 281 281 280 281 283 285 285 285 286 288 289 289 290 291 293 294 294 294 295 297 298 300 301 300 298 297 298 299 300 297 292 291 290 284
261 262 263 264 266 267 267 267 267 267 267 268 268 269 269 270 271 272 273 274 274 274 275 275 276 278 279 281 284 285 286 285 285 284 282 280 277 276 275 273 272 271 271 270 270 270 270 268 269 269 271 273 276 279 280 281 282 283 285 286 285 286 287 288 288 288 289 289 290 291 292 293 295 296 297 298 298 297 297 298 300 301 302 300 295 290 285 280
262 263 265 265 265 266 266 266 267 267 268 269 269 269 270 270 271 272 273 273 272 272 275 277 279 281 281 282 283 283 284 283 283 282 281 280 278 276 276 275 274 273 272 272 272 272 271 271 271 271 272 274 277 279 280 281 283 285 286 286 287 287 288 288 288 289 290 290 290 291 292 293 294 296 297 297 297 297 297 299 300 300 301 301 297 290 284 281
263 264 265 265 263 264 265 266 267 268 269 270 270 269 269 271 271 272 272 271 271 271 274 278 280 281 282 283 283 282 282 281 280 280 280 279 278 277 276 275 275 274 274 273 273 275 275 275 275 275 277 278 279 280 282 283 284 285 286 286 287 287 287 288 288 289 289 289 290 291 293 293 294 295 294 293 294 295 296 296 295 296 299 299 292 284 279 282
264 263 263 262 261 263 266 266 266 267 269 269 269 269 269 270 270 271 271 269 270 273 276 278 278 280 281 281 281 279 278 277 277 278 278 277 277 277 277 277 277 276 275 275 275 276 276 277 278 279 281 281 282 283 284 285 286 287 288 288 288 288 289 289 289 289 288 288 289 291 292 293 293 292 290 290 290 291 292 292 291 294 297 295 289 284 280 282
267 265 263 261 262 265 267 266 265 267 268 267 267 267 268 268 266 268 269 269 272 275 277 277 278 278 278 279 279 278 276 275 275 275 275 275 275 276 277 278 278 278 278 278 277 277 278 279 281 282 284 285 286 287 288 289 290 291 291 291 292 292 292 292 291 289 288 288 289 289 289 289 287 287 286 287 287 288 289 289 289 290 289 287 286 287 286 285
260 264 265 266 266 266 266 265 265 267 267 265 264 264 265 265 264 265 268 271 275 277 277 277 277 276 277 277 277 276 275 275 275 275 274 274 274 275 276 277 278 279 280 280 280 279 280 282 284 286 287 288 289 290 291 292 292 292 292 292 293 293 293 292 291 291 291 291 289 287 286 284 283 282 282 282 282 284 286 287 287 286 285 284 284 286 287 287
252 256 259 260 260 259 260 262 263 264 264 264 264 264 264 264 263 265 269 272 274 276 276 275 274 275 276 276 275 274 274 274 275 276 277 277 277 276 277 278 279 280 281 282 282 282 282 281 284 287 288 288 289 290 290 290 290 290 290 290 290 290 290 290 290 291 290 290 288 286 284 283 282 282 283 282 282 281 281 282 282 282 283 285 285 285 285 285
256 255 253 252 253 253 255 256 257 258 259 260 261 260 261 264 265 266 269 271 272 273 272 272 272 273 273 273 273 273 275 275 276 277 278 278 278 279 280 281 282 283 284 284 284 284 284 283 284 285 286 287 288 288 288 288 288 287 287 287 287 287 288 288 289 288 287 285 284 283 283 282 283 285 286 286 285 283 281 280 281 281 282 283 282 282 281 282
259 259 257 256 257 256 255 254 253 254 254 254 254 255 258 263 265 266 268 270 270 270 270 271 271 272 271 272 272 274 275 276 277 277 277 278 280 281 282 283 283 283 284 284 284 285 285 286 285 285 286 287 286 286 285 286 285 285 285 285 285 286 286 285 283 283 282 281 280 281 283 284 285 285 284 283 283 284 283 282 282 282 281 281 280 280 280 281
259 260 260 260 259 256 253 252 252 250 250 252 252 253 257 260 262 266 269 270 270 270 271 270 270 271 271 271 271 272 273 274 276 277 277 279 280 281 282 282 282 283 282 282 283 283 284 284 285 286 286 285 285 284 283 283 282 283 284 284 284 285 282 279 279 278 278 276 278 281 282 284 285 283 282 282 282 282 281 280 280 279 279 279 278 278 279 280
258 258 259 258 256 253 252 252 251 251 254 257 257 255 257 261 265 270 272 271 271 272 271 270 270 270 270 270 270 270 269 270 272 274 276 278 279 280 281 281 281 282 282 281 281 280 281 282 284 285 285 284 285 284 283 283 282 282 283 284 284 283 280 278 277 277 276 275 278 280 280 282 281 281 282 284 283 282 281 279 277 276 277 277 277 277 277 277
255 255 255 255 255 257 259 260 262 266 269 270 268 265 267 271 273 274 272 271 271 270 269 269 269 268 267 268 269 270 270 271 272 273 274 276 278 280 280 280 281 282 282 282 282 282 282 283 283 284 284 284 284 284 283 284 284 283 283 283 282 281 279 279 278 277 278 278 279 279 279 280 280 281 284 284 284 283 281 279 277 276 276 277 277 277 276 276
256 256 256 259 262 265 269 271 273 276 278 278 277 276 276 276 274 271 267 267 268 268 267 265 264 265 266 267 269 270 271 271 273 274 275 276 279 280 280 281 282 283 282 283 284 285 285 284 283 284 283 282 282 283 283 284 283 282 281 280 280 278 277 276 275 276 277 277 277 277 277 278 281 284 284 284 284 284 282 281 280 281 281 280 279 278 277 277
264 263 263 265 268 272 275 276 275 275 275 276 276 276 274 272 270 267 265 265 265 264 262 260 260 263 265 266 267 268 269 270 271 274 275 276 278 280 281 282 283 283 283 284 285 286 285 284 284 284 282 281 282 284 284 283 281 280 279 278 277 276 276 275 272 273 274 274 275 276 275 276 279 281 281 281 282 281 281 282 283 283 282 281 280 279 278 277
266 267 267 269 270 271 272 272 273 272 270 270 271 270 267 266 266 264 263 264 263 262 261 261 263 265 266 267 268 269 271 272 273 275 277 278 279 280 281 282 282 283 284 284 285 284 283 283 283 282 281 281 282 283 282 280 279 279 277 275 274 274 275 274 273 274 274 273 274 275 274 274 277 278 277 277 275 276 279 281 282 280 279 279 279 278 277 276
264 265 266 267 268 268 268 268 270 270 268 268 268 266 262 261 261 261 260 261 262 262 263 264 265 266 267 269 271 273 275 276 277 278 279 279 280 281 281 281 282 283 283 283 282 282 281 281 281 280 280 281 281 280 279 279 279 278 275 274 273 272 272 272 274 277 276 273 274 274 274 276 279 278 275 273 273 275 277 278 279 278 278 278 277 276 276 277
265 266 266 266 267 266 266 266 267 267 268 268 266 262 260 258 259 261 262 262 263 265 266 267 269 269 271 272 275 277 278 278 278 279 280 280 280 280 281 281 281 281 280 279 279 279 279 279 279 279 279 280 280 279 278 279 278 276 276 276 274 273 272 271 272 276 275 273 274 273 273 277 279 275 273 273 273 274 275 276 276 276 276 276 276 277 277 277
265 266 266 266 266 266 266 266 267 267 267 267 266 263 262 262 263 266 266 265 265 266 267 269 271 272 273 275 275 276 277 278 278 278 279 279 279 279 279 279 278 278 277 277 276 277 277 276 277 278 278 278 279 279 279 278 275 274 275 276 274 273 273 271 273 274 272 272 274 273 272 274 275 274 274 275 275 275 275 274 275 274 275 275 276 276 275 275
264 264 264 264 264 265 266 267 268 268 267 268 268 267 267 268 269 270 270 269 268 267 267 268 269 270 271 271 272 273 274 275 276 276 276 276 277 276 276 276 276 276 276 275 275 275 275 274 275 276 276 277 279 280 280 277 274 272 273 272 271 271 272 273 275 273 271 274 275 272 273 275 276 277 278 278 278 277 276 275 275 276 276 276 275 274 273 273
262 263 263 264 264 265 265 266 267 268 268 269 269 269 270 271 271 271 270 270 270 269 269 269 269 270 270 271 271 271 272 273 273 273 274 274 274 274 274 274 274 274 274 275 274 274 273 273 274 274 274 276 278 278 278 275 273 272 272 272 272 272 273 274 274 273 274 276 275 274 276 278 278 280 280 280 280 279 278 277 276 275 274 274 273 273 273 273
260 261 262 263 264 264 265 265 266 267 269 269 269 269 269 269 270 270 270 270 270 271 270 270 271 271 271 272 271 271 271 271 271 272 273 273 272 272 273 273 273 273 274 274 273 273 272 272 273 274 274 275 276 276 275 273 272 272 272 273 274 274 275 275 275 276 278 278 278 278 280 281 281 281 282 282 281 281 280 278 275 274 273 273 273 273 273 272
260 261 261 262 263 264 265 265 266 267 267 268 268 267 267 268 269 269 269 269 270 270 270 270 271 271 271 271 270 270 270 270 270 271 272 271 271 272 272 272 272 273 274 273 273 273 272 273 275 274 273 273 274 275 275 273 272 271 272 273 274 274 275 276 277 278 278 278 280 281 281 281 282 282 282 281 280 279 279 278 276 275 275 274 274 274 273 273
261 262 262 263 263 264 265 266 266 266 266 266 267 267 268 268 268 269 269 268 268 268 268 269 269 269 269 269 269 269 269 269 269 269 270 270 270 271 272 272 272 273 274 273 273 273 273 274 276 274 273 273 274 275 275 273 272 272 272 273 274 275 277 277 277 278 278 279 280 281 281 281 282 282 282 280 278 277 276 276 276 276 276 275 275 275 274 274
263 263 264 264 265 265 266 266 266 266 266 266 267 269 269 268 268 268 268 267 268 267 267 267 268 268 267 267 267 268 268 268 268 269 269 269 270 270 271 271 272 273 273 273 273 273 274 274 275 274 274 274 274 275 274 272 273 273 273 273 275 278 279 278 277 278 279 279 280 281 281 281 282 282 279 278 277 277 276 276 276 275 275 275 275 275 274 274
264 264 264 264 265 265 265 266 266 265 265 266 268 269 268 267 267 266 266 266 266 266 266 266 267 267 266 266 266 267 267 268 268 269 270 270 270 270 271 271 272 273 273 273 273 273 274 274 275 275 274 274 275 274 273 273 273 272 272 275 278 280 279 279 279 279 280 281 282 281 281 281 281 280 278 277 277 277 277 277 276 275 275 274 274 273 273 272
264 264 264 264 265 265 265 265 265 265 266 267 268 267 265 265 265 264 264 265 265 265 265 265 265 265 265 265 265 266 267 268 268 269 269 270 270 270 271 272 272 273 274 274 274 274 274 275 275 275 275 275 276 275 275 275 273 272 275 279 281 280 280 279 279 279 280 281 282 281 281 281 280 279 279 279 278 278 278 277 277 277 276 275 274 274 273 273